Simultaneous Nadir Overpasses (SNOs) Predictions

Prediction of SNOs between LANDSAT-8 and NOAA-19 Satellite Orbit:

Table of predicted SNOs for the next 14.0 days since TLE Epoch: 7/3/2015
Index Date (LANDSAT-8) Time (LANDSAT-8) Lat,Lon (LANDSAT-8) SZA (LANDSAT-8 ) Date (NOAA-19) Time (NOAA-19) Lat,Lon (NOAA-19) SZA (NOAA-19 ) Distance(km) Time Diff (sec)
1 07/05/2015 05:11:47 -73.35, -76.26 129.56 07/05/2015 05:10:55 -73.37, -76.27 129.54 1.92 52
2 07/05/2015 06:01:14 73.27, 91.21 50.37 07/05/2015 06:01:59 73.26, 91.19 50.37 0.70 45
3 07/07/2015 10:45:32 73.33, 20.27 50.65 07/07/2015 10:45:20 73.32, 20.27 50.64 1.28 12
4 07/07/2015 11:35:02 -73.21,-172.34 129.47 07/07/2015 11:36:15 -73.22,-172.24 129.46 3.18 73
5 07/09/2015 15:29:50 73.39, -50.68 50.96 07/09/2015 15:28:41 73.38, -50.67 50.95 1.04 69
6 07/09/2015 16:19:19 -73.33, 116.82 129.10 07/09/2015 16:19:37 -73.31, 116.77 129.12 3.17 18
7 07/11/2015 21:03:37 -73.38, 45.86 128.76 07/11/2015 21:02:59 -73.39, 45.77 128.76 3.20 38
8 07/11/2015 21:53:04 73.30,-146.68 51.15 07/11/2015 21:54:01 73.27,-146.72 51.13 2.98 57
9 07/14/2015 02:37:22 73.34, 142.35 51.51 07/14/2015 02:37:22 73.34, 142.32 51.51 0.87 0
10 07/14/2015 03:27:01 -72.76, -51.19 129.07 07/14/2015 03:28:09 -72.76, -49.12 129.06 68.06 68
11 07/16/2015 07:21:40 73.39, 71.36 51.90 07/16/2015 07:20:43 73.42, 71.35 51.93 3.36 57
12 07/16/2015 08:11:09 -73.33,-121.12 128.16 07/16/2015 08:11:40 -73.30,-121.12 128.18 3.32 31




NCC Satellite Simultaneous Nadir Overpasses (SNOs) Prediction Service
